TimeEST,TemperatureF,Dew PointF,Humidity,Sea Level PressureIn,VisibilityMPH,Wind Direction,Wind SpeedMPH,Gust SpeedMPH,PrecipitationIn,Events,Conditions,WindDirDegrees,DateUTC
12:15 AM,33.1,32.2,96,30.15,10.0,Calm,Calm,-,N/A,,Clear,0,2013-11-12 05:15:00
12:35 AM,32.9,32.0,96,30.14,10.0,Calm,Calm,-,N/A,,Clear,0,2013-11-12 05:35:00
12:55 AM,32.5,32.0,98,30.13,10.0,Calm,Calm,-,N/A,,Clear,0,2013-11-12 05:55:00
1:15 AM,32.5,32.0,98,30.13,10.0,Calm,Calm,-,N/A,,Clear,0,2013-11-12 06:15:00
1:35 AM,32.2,31.8,99,30.12,10.0,Calm,Calm,-,N/A,,Clear,0,2013-11-12 06:35:00
1:55 AM,32.0,31.6,99,30.11,10.0,Calm,Calm,-,N/A,,Clear,0,2013-11-12 06:55:00
2:15 AM,32.0,31.5,98,30.11,10.0,Calm,Calm,-,N/A,,Clear,0,2013-11-12 07:15:00
2:35 AM,31.8,30.9,96,30.10,10.0,Calm,Calm,-,N/A,,Clear,0,2013-11-12 07:35:00
2:55 AM,32.0,31.1,96,30.10,10.0,Calm,Calm,-,N/A,,Clear,0,2013-11-12 07:55:00
3:15 AM,31.3,30.6,97,30.10,10.0,Calm,Calm,-,N/A,,Clear,0,2013-11-12 08:15:00
3:35 AM,31.6,30.9,97,30.10,10.0,Calm,Calm,-,N/A,,Clear,0,2013-11-12 08:35:00
3:55 AM,32.0,32.0,100,30.09,10.0,Calm,Calm,-,N/A,,Clear,0,2013-11-12 08:55:00
4:15 AM,32.0,31.3,97,30.09,10.0,Calm,Calm,-,N/A,,Clear,0,2013-11-12 09:15:00
4:35 AM,31.3,30.6,97,30.09,10.0,Calm,Calm,-,N/A,,Clear,0,2013-11-12 09:35:00
4:55 AM,31.6,30.9,97,30.07,10.0,Calm,Calm,-,N/A,,Clear,0,2013-11-12 09:55:00
5:15 AM,32.0,30.6,94,30.07,10.0,Calm,Calm,-,N/A,,Clear,0,2013-11-12 10:15:00
5:35 AM,32.0,31.3,97,30.07,10.0,Calm,Calm,-,N/A,,Clear,0,2013-11-12 10:35:00
5:55 AM,31.5,30.7,97,30.07,7.0,Calm,Calm,-,N/A,,Clear,0,2013-11-12 10:55:00
6:15 AM,30.9,30.4,98,30.06,7.0,Calm,Calm,-,N/A,,Clear,0,2013-11-12 11:15:00
6:35 AM,30.6,30.0,98,30.06,7.0,Calm,Calm,-,N/A,,Clear,0,2013-11-12 11:35:00
6:55 AM,31.1,30.4,97,30.06,7.0,Calm,Calm,-,N/A,,Clear,0,2013-11-12 11:55:00
7:15 AM,31.6,31.1,98,30.07,5.0,Calm,Calm,-,N/A,,Clear,0,2013-11-12 12:15:00
7:35 AM,32.0,31.6,99,30.07,7.0,Calm,Calm,-,N/A,,Clear,0,2013-11-12 12:35:00
7:55 AM,33.8,32.9,96,30.08,7.0,Calm,Calm,-,N/A,,Clear,0,2013-11-12 12:55:00
8:15 AM,38.1,36.7,95,30.08,10.0,Calm,Calm,-,N/A,,Clear,0,2013-11-12 13:15:00
8:35 AM,39.9,38.5,95,30.08,10.0,Calm,Calm,-,N/A,,Clear,0,2013-11-12 13:35:00
8:55 AM,45.7,38.5,76,30.08,10.0,Calm,Calm,-,N/A,,Clear,0,2013-11-12 13:55:00
9:15 AM,48.2,38.3,69,30.09,10.0,Calm,Calm,-,N/A,,Clear,0,2013-11-12 14:15:00
9:35 AM,50.0,37.2,62,30.09,10.0,WSW,3.5,-,N/A,,Clear,240,2013-11-12 14:35:00
9:55 AM,50.9,36.7,58,30.10,10.0,West,3.5,-,N/A,,Scattered Clouds,270,2013-11-12 14:55:00
10:15 AM,51.3,36.0,56,30.10,10.0,WNW,3.5,-,N/A,,Scattered Clouds,290,2013-11-12 15:15:00
10:35 AM,52.7,37.2,56,30.10,10.0,Calm,Calm,-,N/A,,Scattered Clouds,0,2013-11-12 15:35:00
10:55 AM,54.5,38.3,54,30.10,10.0,Calm,Calm,-,N/A,,Clear,0,2013-11-12 15:55:00
11:15 AM,58.8,39.6,49,30.10,10.0,NE,4.6,-,N/A,,Clear,50,2013-11-12 16:15:00
11:35 AM,61.0,32.5,34,30.10,10.0,North,8.1,-,N/A,,Scattered Clouds,350,2013-11-12 16:35:00
11:55 AM,61.2,32.9,35,30.09,10.0,North,10.4,-,N/A,,Scattered Clouds,360,2013-11-12 16:55:00
12:15 PM,60.8,32.5,35,30.08,10.0,North,9.2,-,N/A,,Scattered Clouds,360,2013-11-12 17:15:00
12:35 PM,62.2,32.4,33,30.08,10.0,NNE,11.5,18.4,N/A,,Clear,20,2013-11-12 17:35:00
12:55 PM,63.0,33.1,33,30.07,10.0,North,16.1,20.7,N/A,,Scattered Clouds,350,2013-11-12 17:55:00
1:15 PM,61.9,33.6,35,30.08,10.0,NNW,10.4,18.4,N/A,,Mostly Cloudy,340,2013-11-12 18:15:00
1:35 PM,61.2,34.0,36,30.09,10.0,North,16.1,-,N/A,,Overcast,360,2013-11-12 18:35:00
1:55 PM,60.4,34.3,38,30.09,10.0,North,13.8,19.6,N/A,,Overcast,350,2013-11-12 18:55:00
2:15 PM,59.0,34.5,40,30.10,10.0,NNE,16.1,20.7,N/A,,Overcast,20,2013-11-12 19:15:00
2:35 PM,58.5,32.7,38,30.11,10.0,North,19.6,24.2,N/A,,Overcast,10,2013-11-12 19:35:00
2:55 PM,56.7,32.9,41,30.12,10.0,North,18.4,21.9,N/A,,Overcast,360,2013-11-12 19:55:00
3:15 PM,55.2,34.0,45,30.13,10.0,North,17.3,24.2,N/A,,Overcast,10,2013-11-12 20:15:00
3:35 PM,54.0,34.7,48,30.15,10.0,North,25.3,32.2,N/A,,Overcast,360,2013-11-12 20:35:00
3:55 PM,49.8,30.0,47,30.18,10.0,NNE,20.7,27.6,N/A,,Overcast,20,2013-11-12 20:55:00
4:15 PM,47.3,29.5,50,30.20,10.0,NNE,21.9,28.8,N/A,,Overcast,20,2013-11-12 21:15:00
4:35 PM,45.1,31.8,60,30.23,10.0,NNE,21.9,31.1,N/A,,Overcast,20,2013-11-12 21:35:00
4:55 PM,43.0,31.6,64,30.25,10.0,North,21.9,27.6,N/A,,Overcast,10,2013-11-12 21:55:00
5:15 PM,41.0,32.0,70,30.26,10.0,North,17.3,24.2,N/A,,Light Drizzle,360,2013-11-12 22:15:00
5:35 PM,39.9,31.8,73,30.27,10.0,North,21.9,28.8,N/A,,Light Drizzle,10,2013-11-12 22:35:00
5:55 PM,39.2,32.0,75,30.28,10.0,North,13.8,24.2,N/A,Rain,Light Rain,10,2013-11-12 22:55:00
6:15 PM,38.1,32.4,80,30.30,10.0,North,13.8,-,N/A,Rain,Light Rain,360,2013-11-12 23:15:00
6:35 PM,37.4,33.3,85,30.31,10.0,North,11.5,-,N/A,Rain,Light Rain,360,2013-11-12 23:35:00
6:55 PM,37.0,33.8,88,30.32,10.0,North,10.4,17.3,N/A,Rain,Light Rain,360,2013-11-12 23:55:00
7:15 PM,36.5,33.4,89,30.34,10.0,North,11.5,17.3,N/A,Rain,Rain,350,2013-11-13 00:15:00
7:35 PM,36.0,34.2,93,30.34,7.0,North,8.1,-,N/A,Rain,Rain,360,2013-11-13 00:35:00
7:55 PM,35.8,34.2,94,30.34,10.0,NNW,6.9,-,0.01,Rain,Light Rain,340,2013-11-13 00:55:00
8:15 PM,36.1,34.0,92,30.35,10.0,Calm,Calm,-,N/A,,Overcast,0,2013-11-13 01:15:00
8:35 PM,36.5,34.2,91,30.36,10.0,NNW,3.5,-,N/A,,Overcast,340,2013-11-13 01:35:00
8:55 PM,36.5,34.0,91,30.37,10.0,Calm,Calm,-,N/A,,Overcast,0,2013-11-13 01:55:00
9:15 PM,36.7,34.2,91,30.37,10.0,Calm,Calm,-,N/A,,Overcast,0,2013-11-13 02:15:00
9:35 PM,36.7,34.5,92,30.38,10.0,Calm,Calm,-,N/A,,Overcast,0,2013-11-13 02:35:00
9:55 PM,36.7,34.7,93,30.40,10.0,NW,4.6,-,N/A,,Overcast,310,2013-11-13 02:55:00
10:15 PM,36.5,34.7,93,30.40,10.0,NW,4.6,-,N/A,,Overcast,320,2013-11-13 03:15:00
10:35 PM,36.9,34.9,93,30.40,10.0,NW,4.6,-,N/A,,Mostly Cloudy,320,2013-11-13 03:35:00
10:55 PM,36.5,33.6,89,30.41,10.0,NNW,5.8,-,N/A,,Scattered Clouds,330,2013-11-13 03:55:00
11:15 PM,35.8,32.5,88,30.42,10.0,NNW,3.5,-,N/A,,Clear,340,2013-11-13 04:15:00
11:35 PM,35.2,32.0,88,30.42,10.0,NW,4.6,-,N/A,,Clear,320,2013-11-13 04:35:00
11:55 PM,34.3,30.7,87,30.43,10.0,NNW,6.9,-,N/A,,Clear,340,2013-11-13 04:55:00